Theta_e
305 309 318 320 323 325 327 329 326 324 324 323 322 323 324 323 324 325 325 322 322 322 321 321 321 321 320 320 320 320 319 319 318 314 314 313 314 314 313 314 313 313 312
310 310 317 321 321 323 324 325 327 325 324 323 322 320 324 324 323 325 322 322 323 321 321 321 321 321 320 320 320 320 319 318 318 316 313 312 311 311 311 311 310 309 309
311 312 315 320 316 318 323 324 326 325 324 323 322 323 324 323 324 323 323 323 322 321 321 321 320 319 319 319 319 319 318 317 317 315 312 311 309 308 308 307 306 305 304
309 310 313 319 316 314 321 322 325 325 323 323 324 324 323 322 322 323 323 321 320 320 320 321 320 319 319 319 319 318 317 317 315 314 312 310 308 306 304 303 301 299 299
307 308 311 319 317 321 323 321 322 322 324 323 322 323 322 323 321 322 321 320 320 319 319 319 319 319 319 318 318 317 316 315 313 312 310 308 306 304 302 301 300 299 297
307 307 310 316 321 314 322 322 323 323 322 322 322 322 323 321 321 321 321 321 320 319 319 320 318 318 316 316 315 313 313 313 311 309 307 303 298 297 296 298 297 297 292
305 309 311 314 319 320 321 322 322 322 322 322 322 322 322 321 320 320 319 319 318 319 320 319 315 316 315 314 313 312 311 309 308 302 299 295 293 293 292 292 293 292 291
304 309 312 314 318 319 320 321 322 321 322 321 321 322 321 321 320 320 319 319 319 319 317 316 316 314 313 312 311 310 307 298 295 293 292 292 292 292 292 293 293 293 292
304 309 312 314 317 319 320 320 320 320 320 321 322 321 320 321 321 320 319 318 319 315 316 315 314 311 310 309 305 300 296 292 291 292 291 291 291 290 291 292 291 292 289
303 307 311 314 317 318 319 320 320 319 319 320 321 321 321 321 320 319 318 318 316 315 313 311 307 302 300 297 297 294 293 292 291 291 290 291 291 290 289 289 288 289 287
302 305 311 314 317 318 318 320 319 319 320 320 320 320 320 319 319 318 317 317 315 313 308 301 299 298 294 293 293 293 293 291 291 291 291 291 290 290 290 289 289 289 287
301 304 311 314 317 318 317 318 319 317 319 319 319 318 318 317 318 318 317 316 313 309 302 299 295 293 293 293 293 293 291 291 291 291 291 290 290 290 289 289 288 287 286
301 304 310 313 318 317 318 317 316 317 316 317 317 316 313 314 315 315 314 312 305 303 299 294 293 292 292 293 292 291 290 291 290 291 291 290 289 289 289 288 287 287 286
300 305 310 312 317 317 317 316 316 316 316 316 314 311 310 312 313 312 310 302 301 298 293 293 293 293 293 292 291 290 290 290 291 292 291 290 288 288 288 288 287 286 286
302 306 308 311 315 316 316 316 316 316 316 314 314 315 314 313 314 312 309 303 301 296 294 293 293 293 292 291 290 290 290 290 291 291 291 290 289 289 288 288 287 287 286
304 307 309 312 313 315 314 311 313 315 314 314 314 315 313 314 312 306 302 301 297 293 293 293 293 293 292 291 290 290 290 290 290 291 291 290 289 289 288 288 287 287 286
308 309 310 313 312 313 312 311 308 306 310 313 315 314 313 308 303 302 301 297 293 293 294 293 293 292 291 290 290 290 290 290 290 290 290 290 290 289 288 288 287 287 286
310 310 313 311 313 312 313 312 311 308 307 306 311 310 304 302 302 300 298 293 292 292 294 294 293 292 291 290 290 290 290 290 290 290 290 290 290 289 289 289 288 287 286
310 311 313 312 312 312 311 310 310 310 309 307 306 301 300 301 300 299 294 293 293 293 294 293 293 292 291 290 290 290 290 290 290 290 290 290 290 289 289 288 288 287 287
312 313 313 312 310 311 311 310 310 311 310 308 300 301 301 300 298 295 293 293 293 294 294 293 293 292 291 290 290 290 290 290 290 290 291 290 290 290 290 289 289 288 287
311 310 313 311 311 311 312 310 312 312 310 302 301 302 301 299 296 293 293 293 294 294 294 293 293 292 291 290 290 290 290 290 290 291 291 291 290 290 290 290 290 289 288
311 310 311 311 311 310 310 311 312 312 309 303 302 301 298 296 294 293 293 293 293 294 293 293 293 292 291 290 290 290 290 290 290 291 291 291 290 290 290 290 290 289 289
311 310 310 309 309 309 310 311 312 311 308 302 302 300 296 295 293 293 293 293 293 293 293 293 293 292 291 290 290 290 290 290 290 290 291 291 291 290 290 291 290 290 290
308 309 309 310 309 310 311 312 312 309 302 302 302 300 297 295 293 292 293 293 293 293 293 293 293 292 291 290 290 290 290 290 290 290 290 290 290 290 290 291 291 290 290
309 309 312 312 311 312 312 311 308 302 301 302 301 299 297 295 293 292 293 293 293 293 293 293 292 292 291 291 290 290 290 290 290 290 290 290 290 290 290 291 291 291 290
308 309 312 313 312 312 311 310 305 300 301 302 301 299 297 295 293 293 293 293 293 293 293 293 292 292 292 291 290 290 290 290 289 289 289 289 289 289 290 290 291 291 291
Wind_Speed
26 24 20 20 16 13 11 5 11 8 11 6 10 22 25 23 22 21 20 20 17 16 16 14 14 10 14 12 10 8 8 5 8 14 12 12 9 7 7 6 6 4 4
23 24 20 17 14 12 14 12 17 15 12 5 6 17 19 22 22 22 21 18 20 19 18 16 15 13 12 9 8 6 6 6 4 13 14 13 11 10 9 7 7 6 7
20 21 22 15 12 13 14 8 17 18 17 16 20 26 26 21 21 21 21 19 21 21 19 17 16 11 11 9 8 6 4 6 7 11 17 13 13 10 8 7 7 6 8
21 24 22 16 12 17 12 6 14 16 17 20 24 24 26 23 22 21 20 20 24 22 20 17 14 9 8 7 5 7 10 14 16 15 15 13 9 6 4 6 6 7 7
21 24 22 15 7 4 9 11 18 18 20 22 23 25 26 25 22 23 22 25 24 22 19 15 11 8 8 7 10 15 15 14 17 16 13 8 5 5 2 3 3 4 6
22 20 20 15 6 9 11 12 16 18 19 19 25 27 26 25 23 23 24 24 21 18 17 16 12 9 10 16 19 18 13 11 8 6 8 6 8 7 4 1 1 1 5
22 16 18 16 10 1 3 9 13 17 18 21 26 27 27 25 24 24 21 19 17 17 16 13 13 15 17 17 15 13 13 11 8 6 7 8 7 8 7 8 8 8 12
18 14 15 17 9 2 5 12 14 16 21 19 27 31 28 25 22 21 20 20 22 20 15 16 19 20 16 10 9 13 14 13 11 10 11 13 11 9 7 8 6 7 7
17 13 14 14 8 7 17 18 18 19 20 20 30 32 28 25 22 21 20 22 23 24 24 21 20 17 14 9 8 13 17 18 16 14 15 14 12 10 8 7 6 4 6
20 14 11 10 10 11 15 19 19 22 23 24 26 24 26 25 22 19 19 22 26 28 23 20 16 16 15 12 10 14 19 20 16 16 16 15 14 14 13 12 12 12 11
21 17 10 11 13 15 13 24 25 27 26 25 26 27 28 25 23 15 13 18 24 26 25 22 20 16 15 15 14 16 18 19 18 16 17 17 17 16 16 15 17 19 20
21 17 8 9 22 20 19 20 21 23 25 27 29 31 28 32 27 20 18 20 24 23 24 22 20 17 17 17 17 17 19 18 16 16 17 17 16 16 17 18 19 21 20
21 15 9 7 25 21 18 20 21 22 24 26 30 30 33 32 27 24 24 23 22 21 23 22 21 20 20 18 19 20 19 16 15 16 16 17 16 15 15 16 17 17 17
21 16 9 14 22 24 22 21 25 28 31 35 34 35 35 31 31 27 25 25 23 24 25 24 22 21 19 20 21 20 18 15 14 15 16 17 15 13 15 14 15 16 18
19 15 10 23 21 26 24 28 28 27 28 34 35 36 38 36 29 25 24 24 24 24 25 24 24 21 21 21 21 18 16 15 15 15 15 15 14 14 15 13 14 16 21
20 19 16 30 33 29 31 31 29 29 30 32 33 34 34 30 27 24 23 23 22 23 24 25 24 21 21 20 19 18 16 15 15 14 14 14 14 14 14 14 14 16 20
27 21 33 25 32 31 31 31 32 29 34 34 33 31 28 29 26 24 24 23 23 24 22 25 23 21 21 20 18 17 17 16 14 14 14 15 14 15 14 15 15 15 18
26 25 30 26 29 32 31 32 32 34 36 32 29 28 26 26 25 25 24 25 28 24 21 23 23 20 19 19 17 16 16 16 14 14 14 15 14 14 14 15 16 15 15
30 29 28 30 31 33 33 34 36 38 39 36 32 28 26 26 25 23 23 24 27 25 23 22 21 19 19 18 17 17 16 15 15 14 15 14 15 14 15 15 15 15 14
25 25 28 34 35 35 34 39 40 39 38 36 34 33 31 28 27 24 24 24 24 24 23 22 20 18 17 17 16 16 15 15 15 14 15 14 14 14 15 14 15 14 15
26 28 30 33 36 38 38 41 41 39 37 37 34 30 28 27 26 25 26 24 23 23 22 21 19 17 17 16 15 15 14 15 14 14 14 14 14 14 15 15 15 15 14
27 29 33 34 36 39 41 41 41 37 37 34 32 31 29 25 24 24 25 24 23 21 20 19 18 16 16 14 14 14 13 13 13 13 13 13 13 14 14 14 15 15 14
27 30 33 35 37 40 40 40 37 35 35 34 32 31 29 25 24 25 26 25 24 23 21 19 17 17 17 16 14 12 11 12 12 12 12 12 13 13 13 14 15 15 15
27 32 33 34 34 36 37 38 35 35 36 34 32 30 27 25 24 26 26 26 25 23 21 19 16 15 16 15 14 13 12 11 12 11 11 11 11 12 12 13 14 15 15
22 30 33 30 34 37 37 34 34 36 35 32 31 29 27 25 25 26 27 26 25 23 22 20 18 16 15 14 14 13 12 12 11 11 10 10 11 11 12 12 13 14 15
21 27 33 34 30 33 34 33 33 35 33 31 28 26 26 25 26 27 28 26 25 24 22 20 18 16 15 14 14 13 12 12 11 10 10 10 10 10 11 11 12 12 13
Wind_Direction
334 335 324 324 336 315 319 257 204 197 147 114 71 160 170 184 172 162 160 150 153 152 142 142 134 128 131 129 123 126 134 124 126 139 129 125 124 103 90 83 72 59 81
336 333 325 327 333 320 311 284 203 189 193 260 197 148 172 174 161 160 146 143 143 147 145 147 137 134 131 123 112 126 111 98 110 136 138 122 108 98 92 90 79 77 71
349 339 338 325 315 331 317 259 193 189 202 189 179 161 168 166 154 152 146 149 142 145 142 138 135 138 125 116 123 107 88 106 123 130 130 119 109 94 83 75 73 59 57
338 335 333 336 319 311 246 189 166 172 166 164 162 164 162 158 155 152 153 144 142 143 135 128 121 111 108 111 113 98 100 115 120 125 120 113 101 87 80 54 62 61 55
321 329 327 333 336 18 176 149 145 144 151 160 166 162 156 150 155 153 144 149 143 139 133 124 114 109 116 116 119 113 119 123 127 125 119 124 125 133 95 99 47 56 57
319 313 322 325 289 37 180 160 154 156 157 160 169 164 152 146 146 149 146 142 143 144 137 130 123 117 128 132 128 119 109 96 85 97 111 112 106 84 85 185 107 187 108
315 322 323 327 322 68 183 147 157 163 172 167 158 154 148 142 148 146 143 144 136 133 133 134 123 139 141 129 114 116 123 126 114 100 110 101 92 87 96 105 100 92 90
305 313 323 330 306 282 197 154 150 150 163 167 160 156 147 147 151 148 144 133 124 124 123 119 128 128 122 108 110 124 121 111 104 102 94 95 87 85 74 58 61 60 63
305 301 322 326 312 251 189 169 154 143 143 146 154 153 146 149 154 148 141 136 134 127 125 131 133 127 117 111 122 125 122 111 106 95 89 86 85 79 64 42 53 12 40
310 284 303 311 267 238 203 174 170 155 148 148 145 147 146 145 150 147 142 140 136 133 132 129 130 121 119 120 120 121 114 104 101 99 96 93 88 87 85 73 67 53 51
299 284 286 280 213 175 155 166 155 153 151 149 147 145 142 146 147 140 149 149 143 140 134 135 126 124 125 123 117 113 104 110 108 103 95 87 82 77 72 66 58 51 52
287 280 278 295 191 176 169 164 163 169 166 156 149 145 149 153 151 146 140 149 146 143 140 132 124 128 124 121 116 109 108 107 103 97 92 85 78 71 66 58 51 47 48
274 254 250 203 195 182 177 172 171 167 157 153 154 149 148 153 152 146 144 147 144 141 134 130 128 128 126 120 113 110 106 104 101 97 89 83 78 72 66 60 54 48 47
256 231 229 193 196 176 177 177 172 168 163 160 155 151 149 148 147 147 147 145 149 144 137 132 132 129 125 120 118 112 109 106 100 93 89 86 87 83 74 67 66 57 51
234 208 225 189 180 171 174 168 168 168 168 160 161 155 155 151 149 150 153 154 156 146 143 137 134 133 127 122 118 114 112 107 101 96 93 92 88 80 76 70 65 61 55
198 189 196 187 182 170 168 162 169 167 164 166 163 159 152 144 141 146 150 153 152 146 143 138 134 130 125 124 124 121 117 110 102 100 96 90 85 80 76 73 67 63 59
166 183 178 168 166 166 163 159 148 147 162 165 159 147 144 140 140 143 147 150 146 147 144 139 135 130 125 127 127 124 119 113 108 104 98 91 85 83 82 76 70 66 66
166 183 172 180 173 167 159 155 153 152 152 148 146 145 143 139 142 147 153 153 145 149 144 139 133 127 126 130 129 126 121 116 112 105 98 92 88 81 79 75 71 68 67
175 176 170 172 170 164 159 157 155 152 150 148 148 146 145 146 150 154 156 154 146 147 144 138 130 127 129 131 131 127 123 120 114 108 100 93 87 79 75 72 69 71 68
171 176 186 171 165 160 158 156 152 152 150 151 152 149 152 155 154 154 156 154 149 146 143 137 130 129 130 134 134 130 128 122 117 110 101 94 89 81 74 70 69 67 64
184 181 175 166 165 164 164 159 157 156 155 156 156 156 156 157 154 158 156 155 151 147 143 137 133 132 131 134 135 132 131 125 120 113 104 95 89 82 74 68 70 69 66
171 169 166 165 168 168 167 163 160 161 159 159 159 159 159 160 157 157 153 152 148 145 140 136 132 128 125 129 134 134 131 126 121 115 106 98 90 83 78 72 70 70 69
166 168 168 167 170 171 168 164 164 164 162 162 162 160 160 160 160 158 154 152 150 146 143 141 139 135 131 132 132 131 128 124 119 114 107 99 92 86 81 76 72 70 67
167 168 168 164 164 165 166 166 169 167 163 163 165 163 160 161 162 161 156 154 152 147 143 140 138 134 131 133 135 134 131 126 119 114 108 101 96 89 82 77 73 70 68
179 171 164 168 165 167 170 170 169 166 166 169 168 165 161 161 163 162 158 157 154 151 147 144 142 136 132 132 133 135 133 127 120 115 110 104 99 93 85 80 76 73 71
176 179 177 174 170 173 171 170 168 170 171 170 170 168 164 164 165 164 161 160 158 155 150 148 145 140 136 134 133 134 133 129 123 117 111 106 100 96 89 84 81 78 74